This demonstration page uses our WeatherBlox Daily Observations layout. Learn more.

Hourly Observations for June 29, 2020

Temp ( °F °C ) Dew Point ( °F °C ) Humidity (%) Winds ( mph kmh ) Pressure ( in mb ) Visibility ( mi km ) Precip ( " mm )
12:54 am 00:54 Clear 80 26.7 71 21.7 74 74 S 18 30 29.58 1002 10 16.0934 0 0
1:54 am 01:54 Clear 79 26.1 71 21.7 77 77 S 17 28 29.59 1002 10 16.0934 0 0
2:54 am 02:54 Clear 78 25.6 71 21.7 79 79 S 17 28 29.58 1002 10 16.0934 0 0
3:54 am 03:54 Clear 77 25 71 21.7 82 82 S 13 20 29.58 1002 10 16.0934 0 0
4:41 am 04:41 Mostly Cloudy 77 25 71 21.7 82 82 S 14 22 29.58 1002 10 16.0934 0 0
4:54 am 04:54 Cloudy 77 25 71 21.7 82 82 S 17 28 29.58 1002 10 16.0934 0 0
5:18 am 05:18 Cloudy 77 25 71 21.7 82 82 S 17 28 29.58 1002 10 16.0934 0 0
5:44 am 05:44 Cloudy 77 25 71 21.7 82 82 S 15 24 29.58 1002 10 16.0934 0 0
5:54 am 05:54 Cloudy 77 25 71 21.7 82 82 S 15 24 29.59 1002 10 16.0934 0 0
6:54 am 06:54 Cloudy 77 25 71 21.7 82 82 S 14 22 29.61 1003 9 14.48406 0 0
7:54 am 07:54 Cloudy 77 25 70 21.1 79 79 S 16 26 29.63 1003 10 16.0934 0 0
8:54 am 08:54 Cloudy 78 25.6 70 21.1 76 76 S 15 24 29.64 1004 10 16.0934 0 0
9:54 am 09:54 Cloudy 79 26.1 70 21.1 74 74 S 16 26 29.64 1004 10 16.0934 0 0
10:54 am 10:54 Cloudy 81 27.2 71 21.7 72 72 S 13 20 29.65 1004 10 16.0934 0 0
11:54 am 11:54 Cloudy 83 28.3 71 21.7 67 67 S 18 30 29.63 1004 10 16.0934 0 0
12:08 pm 12:08 Cloudy 83 28.3 71 21.7 67 67 S 20 31 29.6 1002 10 16.0934 0 0
12:23 pm 12:23 Cloudy 83 28.3 71 21.7 67 67 S 15 24 29.6 1002 10 16.0934 0 0
12:54 pm 12:54 Cloudy 86 30 72 22.2 63 63 SSE 21 33 29.62 1003 10 16.0934 0 0
1:54 pm 13:54 Cloudy 86 30 72 22.2 63 63 SSE 22 35 29.61 1003 10 16.0934 0 0
2:54 pm 14:54 Cloudy 86 30 72 22.2 63 63 SSE 23 37 29.62 1003 10 16.0934 0 0
3:54 pm 15:54 Cloudy 86 30 72 22.2 63 63 SSE 17 28 29.62 1003 10 16.0934 0 0
4:54 pm 16:54 Mostly Cloudy 86 30 73 22.8 65 65 S 20 31 29.62 1003 10 16.0934 0 0
5:54 pm 17:54 Partly Cloudy 88 31.1 73 22.8 61 61 SSE 20 31 29.61 1003 10 16.0934 0 0
6:54 pm 18:54 Mostly Sunny 87 30.6 73 22.8 63 63 SSE 14 22 29.61 1003 10 16.0934 0 0
7:54 pm 19:54 Sunny 86 30 73 22.8 65 65 SE 12 19 29.62 1003 10 16.0934 0 0
8:54 pm 20:54 Sunny 84 28.9 73 22.8 70 70 SE 13 20 29.62 1003 10 16.0934 0 0
9:54 pm 21:54 Clear 82 27.8 73 22.8 74 74 SE 15 24 29.64 1004 10 16.0934 0 0
10:54 pm 22:54 Clear 81 27.2 74 23.3 79 79 SE 16 26 29.65 1004 10 16.0934 0 0
11:54 pm 23:54 Clear 81 27.2 73 22.8 77 77 SSE 16 26 29.64 1004 10 16.0934 0 0

Powered by AerisWeather